Location: Old Broadwell Mill Observatory
(33.8015°N, 85.8137°W)
Time: 19:34:33
(UTC-05:00)

Daily predictions for brighter satellites

Satellite Brightness Start Highest point End
(mag) Time Altitude Azimuth Time Altitude Azimuth Time Altitude Azimuth
ERS-1 Rocket 4.3 20:04:35 10° ESE 20:08:28 23° ENE 20:12:22 10° NNE
COSMOS 2406 3.3 20:03:45 10° NNW 20:09:31 82° ENE 20:15:12 10° SSE
Cosmos 1356 Rocket 3.9 20:06:27 10° SSW 20:10:40 71° W 20:14:57 10° N
Cosmos 1844 3.7 20:05:03 10° SSW 20:10:45 73° ESE 20:16:33 10° NNE
ISS -1.2 20:08:33 10° WSW 20:11:30 31° NW 20:14:27 10° NNE
Okean 1-7 4.3 20:07:25 10° NNW 20:11:32 45° W 20:15:41 10° SSW
Resurs 1-3 4.3 20:07:39 10° S 20:11:58 59° W 20:16:18 10° NNW
H-2A R/B 4.1 20:11:05 10° E 20:12:49 12° ENE 20:14:34 10° NE
Cosmos 407 Rocket 3.8 20:14:23 10° N 20:19:34 53° ENE 20:24:46 10° SSE
Abrixas 3.0 20:17:25 10° SSW 20:20:15 37° SE 20:23:06 10° ENE
Cosmos 2184 Rocket 4.1 20:16:19 10° S 20:22:28 88° W 20:28:42 10° N
COSMOS 2487 4.2 20:20:58 10° NNE 20:23:37 19° ENE 20:25:58 11° ESE
Cosmos 1238 Rocket 4.4 20:21:34 10° NE 20:24:12 18° E 20:26:52 11° ESE
Cosmos 2082 Rocket 4.2 20:24:45 10° NNE 20:27:21 13° NE 20:29:56 10° E
CENTAUR R/B 3.8 20:23:14 10° NW 20:31:02 55° WSW 20:39:05 10° S
Cosmos 1452 Rocket 3.5 20:26:11 10° SSW 20:31:26 83° ESE 20:36:44 10° NNE
Lacrosse 5 3.5 20:32:36 10° SE 20:35:02 13° ESE 20:37:28 10° E
Cosmos 1184 Rocket 3.6 20:33:24 10° SSE 20:36:24 32° E 20:39:25 10° NNE
Cosmos 1190 Rocket 4.1 20:32:04 10° NNW 20:37:17 81° WSW 20:42:28 10° SSE
Cosmos 1674 Rocket 3.6 20:37:24 10° N 20:41:52 90° WSW 20:46:16 10° S
Cosmos 2297 4.1 20:37:29 10° S 20:42:45 41° ESE 20:48:05 10° NE
CZ-2D R/B 4.2 20:40:11 10° S 20:43:51 47° W 20:47:33 10° NNW
H-2A R/B 3.5 20:43:16 10° WSW 20:47:03 55° S 21:07:16 10° E
CZ-3A R/B 4.1 20:23:58 10° W 20:47:32 42° SSW 20:51:20 17° SE
Okean 2 Rocket 3.5 20:47:08 11° SSE 20:51:00 40° E 20:55:07 10° NNE
Cosmos 1782 Rocket 3.6 20:51:26 10° S 20:55:48 58° E 21:00:12 10° NNE
Cosmos 1606 2.6 20:52:15 10° N 20:56:10 80° E 20:59:21 15° S
CZ-4 DEB 3.0 20:55:36 14° S 20:58:15 68° W 21:01:25 10° NNW
EO 1 Delta rocket 4.0 20:55:11 10° NNE 21:00:39 62° E 21:05:18 10° S
USA 186 3.9 21:00:18 10° SSW 21:03:00 26° W 21:05:49 10° NW
ALOS 3.9 20:59:47 10° SSW 21:03:57 32° W 21:08:08 10° NNW
Cosmos 1242 Rocket 3.4 21:00:38 10° NNE 21:03:59 32° ENE 21:04:46 29° ESE
Cosmos 1862 3.7 21:01:36 10° SSW 21:05:37 65° W 21:09:41 10° N
Cosmos 1174 3.7 21:03:34 10° NW 21:06:32 49° WSW 21:07:51 26° S
Cosmos 676 Rocket 4.2 21:03:25 10° NNW 21:08:37 70° WSW 21:12:56 15° S
COS B Rocket 2.8 21:05:17 10° N 21:09:03 77° E 21:10:45 27° S
ARGOS 4.5 21:09:06 19° E 21:10:41 22° ENE 21:14:43 10° NNE
YAOGAN 6 4.0 21:10:46 22° ENE 21:10:46 22° ENE 21:13:32 10° NNE
Cosmos 1954 Rocket 4.0 21:05:51 10° NNW 21:11:06 88° WSW 21:14:41 21° SSE
Lacrosse 5 rocket 1.6 21:07:40 10° SSW 21:11:24 37° SE 21:14:59 10° ENE
Cosmos 2218 Rocket 4.5 21:08:10 21° SSE 21:12:00 41° E 21:17:56 10° NNE
OAO 3 Rocket 3.2 21:07:01 10° WSW 21:12:01 88° SSE 21:15:30 20° E
GPS 2-05 Rocket1 3.2 21:08:26 10° W 21:12:09 66° N 21:13:49 30° ENE
Nadezhda 3 Rocket 4.0 21:06:14 10° N 21:12:38 89° WSW 21:18:31 12° S
SJ-11-01 4.5 21:09:11 14° S 21:13:13 73° WSW 21:17:58 10° NNW
Cosmos 1408 3.2 21:09:40 10° SSW 21:13:16 57° W 21:16:51 10° N
ATLAS 2A CENTAUR R/B 2.6 21:11:49 10° SW 21:12:54 14° SSW 21:12:54 14° SSW
Cosmos 1975 Rocket 3.0 21:10:01 10° N 21:14:18 61° E 21:16:10 32° SSE
DNEPR-1 R/B 4.0 21:09:35 10° NNW 21:14:35 51° ENE 21:16:17 33° ESE
ATLAS 5 CENTAUR R/B 4.4 21:11:39 10° WNW 21:16:28 24° WSW 21:21:27 10° SSW
Meteor 1-27 Rocket 4.1 21:16:14 10° NNW 21:21:40 60° W 21:26:44 12° S
Cosmos 1378 Rocket 3.9 21:17:58 10° NNW 21:22:14 63° W 21:25:11 19° S
CZ-4 SHROUD 4.5 21:23:32 28° NE 21:23:32 28° NE 21:25:42 10° N
Cosmos 1023 Rocket 4.4 21:18:06 10° NNW 21:23:14 79° ENE 21:25:37 33° SSE
Cosmos 1741 Rocket 4.0 21:24:09 10° N 21:29:19 62° ENE 21:31:03 40° SE
MetOp-A 4.1 21:31:17 37° SE 21:33:17 64° ENE 21:38:35 10° N
OAO 1 Rocket 4.5 21:30:36 10° W 21:35:55 79° N 21:38:33 30° ENE
Cosmos 1110 Rocket 4.2 21:35:43 43° SE 21:36:34 48° ESE 21:41:34 10° NNE
Cosmos 1825 4.3 21:33:43 10° SW 21:36:59 27° WNW 21:40:16 10° NNW
Envisat 3.3 21:35:07 25° S 21:38:01 65° WSW 21:43:04 10° NNW
SEDSat Delta rocket 2.8 21:37:01 10° WSW 21:41:22 62° S 21:41:22 62° S
Cosmos 614 Rocket 3.8 21:36:50 10° NNW 21:41:55 75° ENE 21:43:08 52° SE
SL-8 Rocket 4.0 21:38:03 17° S 21:43:03 87° W 21:49:20 10° N
Cosmos 1833 Rocket 3.1 21:38:39 10° N 21:44:02 45° ENE 21:45:06 40° E
Terra 3.7 21:44:32 17° ENE 21:44:32 17° ENE 21:47:09 10° NNE
USA 245 3.9 21:46:36 43° NE 21:46:36 43° NE 21:49:58 10° N
ERS-1 Rocket 4.4 21:43:05 13° SSW 21:47:00 34° W 21:51:33 10° NNW
Cosmos 2278 Rocket 4.4 21:43:37 10° WSW 21:48:13 25° WNW 21:52:51 10° N
H-2A R/B 2.8 21:46:49 31° SSW 21:48:26 46° W 21:52:30 10° NNW
Atlas Centaur 2 3.6 21:51:43 10° WSW 21:52:19 12° SW 21:52:19 12° SW
Timation 1 Rocket 4.2 21:49:54 15° SSW 21:55:01 87° ESE 22:01:03 10° NNE
Cosmos 2151 Rocket 3.6 21:56:55 60° SSW 21:57:41 78° W 22:02:13 10° N
Cosmos 1140 Rocket 4.3 21:53:56 10° NNW 21:58:50 45° WSW 22:00:42 31° SSW
Meteor 1-25 Rocket 4.2 21:58:34 51° SSE 22:00:04 76° E 22:05:54 10° NNE
Timation 2 Rocket 4.2 21:56:14 10° NNW 22:02:05 59° WSW 22:04:05 40° SSW
SPOT 5 3.7 22:02:47 35° SSW 22:04:42 52° W 22:09:56 10° NNW
CZ-4B R/B 3.4 22:02:35 10° N 22:07:27 76° WNW 22:08:19 59° SW
Cosmos 2082 Rocket 2.1 22:06:23 10° NNW 22:12:04 79° WSW 22:12:49 67° S
Okean 1 Rocket 4.4 22:13:52 30° NE 22:13:52 30° NE 22:16:22 10° NNE
Cosmos 1812 4.3 22:13:04 10° N 22:15:11 30° NNE 22:15:11 30° NNE
Lacrosse 5 2.0 22:12:21 10° SW 22:17:25 73° NW 22:22:31 10° NE
H-2A R/B 2.5 22:20:50 50° NE 22:20:50 50° NE 22:25:29 10° N
Meteor 1-18 Rocket 4.3 22:22:04 10° NNW 22:27:58 74° W 22:28:37 67° SW
NOAA 11 4.3 22:28:28 65° SW 22:28:49 67° WSW 22:34:18 10° NNW
Cosmos 1302 Rocket 4.4 22:32:20 54° NNE 22:32:20 54° NNE 22:36:26 10° NNE
SPOT 1/Viking Rocket 4.2 22:35:56 46° WSW 22:36:10 46° W 22:41:11 10° NNW
ASTEX 1 4.4 22:41:14 10° N 22:44:26 40° NNE 22:44:26 40° NNE
ARGOS 4.1 22:50:37 39° W 22:50:37 39° W 22:55:37 10° NNW
Lacrosse 5 rocket 3.8 22:47:48 10° W 22:50:41 19° NW 22:53:30 10° N
Cosmos 2369 Rocket 3.3 22:55:52 36° NE 22:55:52 36° NE 22:59:09 10° NNE
USA 229 DEB 4.1 22:47:06 10° NW 22:54:00 54° WSW 22:54:27 53° SW
USA 229 4.1 22:47:11 10° NW 22:54:06 54° WSW 22:54:33 54° SW
Meteor 1-11 Rocket 4.1 22:56:16 61° N 22:56:16 61° N 23:00:58 10° N
NOSS 3-1 (A) 4.2 23:04:53 10° NNW 23:12:35 63° ENE 23:12:56 63° ENE
Cosmos 1943 Rocket 4.2 23:21:41 18° NE 23:21:41 18° NE 23:23:14 10° NE
Terra 3.6 23:23:26 28° NW 23:23:26 28° NW 23:26:00 10° NNW
ATLAS 2AS CENTAUR R/B 4.0 23:26:09 10° NNW 23:33:24 35° NE 23:34:23 34° ENE
NOSS 3-1 (C) 4.1 23:33:16 10° NW 23:40:23 69° W 23:40:23 69° W
USA 234 3.8 23:38:17 10° NE 23:44:37 54° NW 23:45:22 51° WNW
